Year,Month,Day,Hour,Minute,Value (Times are PST for temperature in C)
2016,05,25,00,00,13.10
2016,05,25,00,01,13.10
2016,05,25,00,02,13.10
2016,05,25,00,03,13.10
2016,05,25,00,04,13.10
2016,05,25,00,05,13.10
2016,05,25,00,06,13.00
2016,05,25,00,07,13.00
2016,05,25,00,08,13.00
2016,05,25,00,09,13.00
2016,05,25,00,10,13.00
2016,05,25,00,11,13.00
2016,05,25,00,12,13.00
2016,05,25,00,13,13.00
2016,05,25,00,14,13.00
2016,05,25,00,15,13.00
2016,05,25,00,16,13.00
2016,05,25,00,17,13.00
2016,05,25,00,18,12.90
2016,05,25,00,19,12.90
2016,05,25,00,20,12.90
2016,05,25,00,21,12.90
2016,05,25,00,22,12.90
2016,05,25,00,23,12.90
2016,05,25,00,24,12.90
2016,05,25,00,25,12.90
2016,05,25,00,26,12.90
2016,05,25,00,27,12.80
2016,05,25,00,28,12.80
2016,05,25,00,29,12.80
2016,05,25,00,30,12.80
2016,05,25,00,31,12.80
2016,05,25,00,32,12.80
2016,05,25,00,33,12.80
2016,05,25,00,34,12.80
2016,05,25,00,35,12.80
2016,05,25,00,36,12.80
2016,05,25,00,37,12.80
2016,05,25,00,38,12.80
2016,05,25,00,39,12.80
2016,05,25,00,40,12.80
2016,05,25,00,41,12.80
2016,05,25,00,42,12.80
2016,05,25,00,43,12.80
2016,05,25,00,44,12.80
2016,05,25,00,45,12.70
2016,05,25,00,46,12.70
2016,05,25,00,47,12.70
2016,05,25,00,48,12.70
2016,05,25,00,49,12.70
2016,05,25,00,50,12.70
2016,05,25,00,51,12.70
2016,05,25,00,52,12.70
2016,05,25,00,53,12.70
2016,05,25,00,54,12.70
2016,05,25,00,55,12.70
2016,05,25,00,56,12.60
2016,05,25,00,57,12.60
2016,05,25,00,58,12.60
2016,05,25,00,59,12.60
2016,05,25,01,00,12.60
2016,05,25,01,01,12.60
2016,05,25,01,02,12.60
2016,05,25,01,03,12.60
2016,05,25,01,04,12.60
2016,05,25,01,05,12.60
2016,05,25,01,06,12.60
2016,05,25,01,07,12.50
2016,05,25,01,08,12.50
2016,05,25,01,09,12.50
2016,05,25,01,10,12.50
2016,05,25,01,11,12.50
2016,05,25,01,12,12.50
2016,05,25,01,13,12.50
2016,05,25,01,14,12.50
2016,05,25,01,15,12.50
2016,05,25,01,16,12.50
2016,05,25,01,17,12.50
2016,05,25,01,18,12.50
2016,05,25,01,19,12.40
2016,05,25,01,20,12.40
2016,05,25,01,21,12.40
2016,05,25,01,22,12.40
2016,05,25,01,23,12.40
2016,05,25,01,24,12.40
2016,05,25,01,25,12.40
2016,05,25,01,26,12.40
2016,05,25,01,27,12.40
2016,05,25,01,28,12.30
2016,05,25,01,29,12.30
2016,05,25,01,30,12.30
2016,05,25,01,31,12.30
2016,05,25,01,32,12.30
2016,05,25,01,33,12.30
2016,05,25,01,34,12.30
2016,05,25,01,35,12.30
2016,05,25,01,36,12.30
2016,05,25,01,37,12.30
2016,05,25,01,38,12.30
2016,05,25,01,39,12.30
2016,05,25,01,40,12.30
2016,05,25,01,41,12.30
2016,05,25,01,42,12.30
2016,05,25,01,43,12.30
2016,05,25,01,44,12.30
2016,05,25,01,45,12.30
2016,05,25,01,46,12.20
2016,05,25,01,47,12.20
2016,05,25,01,48,12.20
2016,05,25,01,49,12.20
2016,05,25,01,50,12.20
2016,05,25,01,51,12.20
2016,05,25,01,52,12.20
2016,05,25,01,53,12.20
2016,05,25,01,54,12.10
2016,05,25,01,55,12.10
2016,05,25,01,56,12.10
2016,05,25,01,57,12.10
2016,05,25,01,58,12.10
2016,05,25,01,59,12.10
2016,05,25,02,00,12.10
2016,05,25,02,01,12.10
2016,05,25,02,02,12.10
2016,05,25,02,03,12.00
2016,05,25,02,04,12.00
2016,05,25,02,05,12.00
2016,05,25,02,06,12.00
2016,05,25,02,07,12.00
2016,05,25,02,08,12.00
2016,05,25,02,09,12.00
2016,05,25,02,10,12.00
2016,05,25,02,11,11.90
2016,05,25,02,12,11.90
2016,05,25,02,13,11.90
2016,05,25,02,14,11.90
2016,05,25,02,15,11.90
2016,05,25,02,16,11.90
2016,05,25,02,17,11.90
2016,05,25,02,18,11.80
2016,05,25,02,19,11.80
2016,05,25,02,20,11.80
2016,05,25,02,21,11.80
2016,05,25,02,22,11.80
2016,05,25,02,23,11.80
2016,05,25,02,24,11.80
2016,05,25,02,25,11.80
2016,05,25,02,26,11.80
2016,05,25,02,27,11.80
2016,05,25,02,28,11.80
2016,05,25,02,29,11.80
2016,05,25,02,30,11.80
2016,05,25,02,31,11.70
2016,05,25,02,32,11.70
2016,05,25,02,33,11.70
2016,05,25,02,34,11.70
2016,05,25,02,35,11.70
2016,05,25,02,36,11.70
2016,05,25,02,37,11.70
2016,05,25,02,38,11.70
2016,05,25,02,39,11.70
2016,05,25,02,40,11.70
2016,05,25,02,41,11.70
2016,05,25,02,42,11.60
2016,05,25,02,43,11.60
2016,05,25,02,44,11.60
2016,05,25,02,45,11.60
2016,05,25,02,46,11.60
2016,05,25,02,47,11.60
2016,05,25,02,48,11.60
2016,05,25,02,49,11.60
2016,05,25,02,50,11.60
2016,05,25,02,51,11.60
2016,05,25,02,52,11.60
2016,05,25,02,53,11.60
2016,05,25,02,54,11.60
2016,05,25,02,55,11.60
2016,05,25,02,56,11.60
2016,05,25,02,57,11.50
2016,05,25,02,58,11.40
2016,05,25,02,59,11.40
2016,05,25,03,00,11.40
2016,05,25,03,01,11.40
2016,05,25,03,02,11.40
2016,05,25,03,03,11.40
2016,05,25,03,04,11.40
2016,05,25,03,05,11.40
2016,05,25,03,06,11.40
2016,05,25,03,07,11.40
2016,05,25,03,08,11.40
2016,05,25,03,09,11.40
2016,05,25,03,10,11.40
2016,05,25,03,11,11.40
2016,05,25,03,12,11.40
2016,05,25,03,13,11.40
2016,05,25,03,14,11.40
2016,05,25,03,15,11.40
2016,05,25,03,16,11.40
2016,05,25,03,17,11.30
2016,05,25,03,18,11.30
2016,05,25,03,19,11.30
2016,05,25,03,20,11.30
2016,05,25,03,21,11.30
2016,05,25,03,22,11.30
2016,05,25,03,23,11.30
2016,05,25,03,24,11.30
2016,05,25,03,25,11.30
2016,05,25,03,26,11.30
2016,05,25,03,27,11.30
2016,05,25,03,28,11.30
2016,05,25,03,29,11.20
2016,05,25,03,30,11.20
2016,05,25,03,31,11.20
2016,05,25,03,32,11.20
2016,05,25,03,33,11.20
2016,05,25,03,34,11.20
2016,05,25,03,35,11.20
2016,05,25,03,36,11.20
2016,05,25,03,37,11.10
2016,05,25,03,38,11.10
2016,05,25,03,39,11.10
2016,05,25,03,40,11.10
2016,05,25,03,41,11.10
2016,05,25,03,42,11.10
2016,05,25,03,43,11.10
2016,05,25,03,44,11.10
2016,05,25,03,45,11.10
2016,05,25,03,46,11.10
2016,05,25,03,47,11.10
2016,05,25,03,48,11.10
2016,05,25,03,49,11.10
2016,05,25,03,50,11.10
2016,05,25,03,51,11.10
2016,05,25,03,52,11.10
2016,05,25,03,53,11.00
2016,05,25,03,54,10.90
2016,05,25,03,55,10.90
2016,05,25,03,56,10.90
2016,05,25,03,57,10.90
2016,05,25,03,58,10.90
2016,05,25,03,59,10.90
2016,05,25,04,00,10.90
2016,05,25,04,01,10.90
2016,05,25,04,02,10.90
2016,05,25,04,03,10.90
2016,05,25,04,04,10.90
2016,05,25,04,05,10.90
2016,05,25,04,06,10.90
2016,05,25,04,07,10.90
2016,05,25,04,08,10.90
2016,05,25,04,09,10.90
2016,05,25,04,10,10.90
2016,05,25,04,11,10.90
2016,05,25,04,12,10.90
2016,05,25,04,13,10.90
2016,05,25,04,14,10.80
2016,05,25,04,15,10.80
2016,05,25,04,16,10.80
2016,05,25,04,17,10.80
2016,05,25,04,18,10.80
2016,05,25,04,19,10.80
2016,05,25,04,20,10.80
2016,05,25,04,21,10.80
2016,05,25,04,22,10.80
2016,05,25,04,23,10.70
2016,05,25,04,24,10.70
2016,05,25,04,25,10.70
2016,05,25,04,26,10.70
2016,05,25,04,27,10.70
2016,05,25,04,28,10.70
2016,05,25,04,29,10.70
2016,05,25,04,30,10.70
2016,05,25,04,31,10.70
2016,05,25,04,32,10.70
2016,05,25,04,33,10.70
2016,05,25,04,34,10.70
2016,05,25,04,35,10.70
2016,05,25,04,36,10.70
2016,05,25,04,37,10.70
2016,05,25,04,38,10.70
2016,05,25,04,39,10.60
2016,05,25,04,40,10.60
2016,05,25,04,41,10.60
2016,05,25,04,42,10.60
2016,05,25,04,43,10.60
2016,05,25,04,44,10.60
2016,05,25,04,45,10.60
2016,05,25,04,46,10.60
2016,05,25,04,47,10.60
2016,05,25,04,48,10.60
2016,05,25,04,49,10.60
2016,05,25,04,50,10.50
2016,05,25,04,51,10.40
2016,05,25,04,52,10.40
2016,05,25,04,53,10.40
2016,05,25,04,54,10.40
2016,05,25,04,55,10.40
2016,05,25,04,56,10.40
2016,05,25,04,57,10.40
2016,05,25,04,58,10.40
2016,05,25,04,59,10.40
2016,05,25,05,00,10.40
2016,05,25,05,01,10.40
2016,05,25,05,02,10.40
2016,05,25,05,03,10.40
2016,05,25,05,04,10.40
2016,05,25,05,05,10.40
2016,05,25,05,06,10.30
2016,05,25,05,07,10.30
2016,05,25,05,08,10.30
2016,05,25,05,09,10.30
2016,05,25,05,10,10.20
2016,05,25,05,11,10.20
2016,05,25,05,12,10.20
2016,05,25,05,13,10.20
2016,05,25,05,14,10.20
2016,05,25,05,15,10.20
2016,05,25,05,16,10.20
2016,05,25,05,17,10.20
2016,05,25,05,18,10.10
2016,05,25,05,19,10.10
2016,05,25,05,20,10.10
2016,05,25,05,21,10.10
2016,05,25,05,22,10.10
2016,05,25,05,23,10.10
2016,05,25,05,24,10.10
2016,05,25,05,25,10.10
2016,05,25,05,26,10.10
2016,05,25,05,27,10.10
2016,05,25,05,28,10.10
2016,05,25,05,29,10.10
2016,05,25,05,30,10.10
2016,05,25,05,31,10.10
2016,05,25,05,32,10.10
2016,05,25,05,33,10.10
2016,05,25,05,34,10.10
2016,05,25,05,35,10.10
2016,05,25,05,36,10.10
2016,05,25,05,37,10.10
2016,05,25,05,38,10.10
2016,05,25,05,39,10.10
2016,05,25,05,40,10.00
2016,05,25,05,41,10.00
2016,05,25,05,42,10.10
2016,05,25,05,43,10.10
2016,05,25,05,44,10.10
2016,05,25,05,45,10.10
2016,05,25,05,46,10.10
2016,05,25,05,47,10.00
2016,05,25,05,48,9.90
2016,05,25,05,49,9.90
2016,05,25,05,50,9.90
2016,05,25,05,51,9.90
2016,05,25,05,52,9.90
2016,05,25,05,53,9.90
2016,05,25,05,54,9.90
2016,05,25,05,55,9.90
2016,05,25,05,56,9.90
2016,05,25,05,57,9.90
2016,05,25,05,58,9.90
2016,05,25,05,59,9.90
2016,05,25,06,00,10.00
2016,05,25,06,01,10.10
2016,05,25,06,02,10.10
2016,05,25,06,03,10.10
2016,05,25,06,04,10.10
2016,05,25,06,05,10.10
2016,05,25,06,06,10.10
2016,05,25,06,07,10.10
2016,05,25,06,08,10.20
2016,05,25,06,09,10.20
2016,05,25,06,10,10.20
2016,05,25,06,11,10.20
2016,05,25,06,12,10.20
2016,05,25,06,13,10.30
2016,05,25,06,14,10.30
2016,05,25,06,15,10.30
2016,05,25,06,16,10.30
2016,05,25,06,17,10.30
2016,05,25,06,18,10.30
2016,05,25,06,19,10.30
2016,05,25,06,20,10.30
2016,05,25,06,21,10.30
2016,05,25,06,22,10.30
2016,05,25,06,23,10.40
2016,05,25,06,24,10.40
2016,05,25,06,25,10.40
2016,05,25,06,26,10.40
2016,05,25,06,27,10.40
2016,05,25,06,28,10.40
2016,05,25,06,29,10.40
2016,05,25,06,30,10.40
2016,05,25,06,31,10.40
2016,05,25,06,32,10.40
2016,05,25,06,33,10.40
2016,05,25,06,34,10.50
2016,05,25,06,35,10.60
2016,05,25,06,36,10.60
2016,05,25,06,37,10.60
2016,05,25,06,38,10.60
2016,05,25,06,39,10.60
2016,05,25,06,40,10.70
2016,05,25,06,41,10.70
2016,05,25,06,42,10.70
2016,05,25,06,43,10.80
2016,05,25,06,44,10.80
2016,05,25,06,45,10.90
2016,05,25,06,46,10.90
2016,05,25,06,47,10.90
2016,05,25,06,48,10.90
2016,05,25,06,49,10.90
2016,05,25,06,50,11.00
2016,05,25,06,51,11.10
2016,05,25,06,52,11.10
2016,05,25,06,53,11.10
2016,05,25,06,54,11.20
2016,05,25,06,55,11.30
2016,05,25,06,56,11.30
2016,05,25,06,57,11.40
2016,05,25,06,58,11.40
2016,05,25,06,59,11.40
2016,05,25,07,00,11.50
2016,05,25,07,01,11.60
2016,05,25,07,02,11.60
2016,05,25,07,03,11.60
2016,05,25,07,04,11.60
2016,05,25,07,05,11.60
2016,05,25,07,06,11.70
2016,05,25,07,07,11.70
2016,05,25,07,08,11.70
2016,05,25,07,09,11.70
2016,05,25,07,10,11.70
2016,05,25,07,11,11.80
2016,05,25,07,12,11.80
2016,05,25,07,13,11.80
2016,05,25,07,14,11.80
2016,05,25,07,15,11.80
2016,05,25,07,16,11.90
2016,05,25,07,17,11.90
2016,05,25,07,18,11.90
2016,05,25,07,19,12.00
2016,05,25,07,20,12.00
2016,05,25,07,21,12.10
2016,05,25,07,22,12.20
2016,05,25,07,23,12.20
2016,05,25,07,24,12.30
2016,05,25,07,25,12.30
2016,05,25,07,26,12.30
2016,05,25,07,27,12.40
2016,05,25,07,28,12.50
2016,05,25,07,29,12.50
2016,05,25,07,30,12.60
2016,05,25,07,31,12.60
2016,05,25,07,32,12.60
2016,05,25,07,33,12.60
2016,05,25,07,34,12.70
2016,05,25,07,35,12.70
2016,05,25,07,36,12.80
2016,05,25,07,37,12.80
2016,05,25,07,38,12.80
2016,05,25,07,39,12.80
2016,05,25,07,40,12.80
2016,05,25,07,41,12.80
2016,05,25,07,42,12.80
2016,05,25,07,43,12.80
2016,05,25,07,44,12.90
2016,05,25,07,45,12.90
2016,05,25,07,46,12.90
2016,05,25,07,47,13.00
2016,05,25,07,48,13.00
2016,05,25,07,49,13.00
2016,05,25,07,50,13.10
2016,05,25,07,51,13.10
2016,05,25,07,52,13.10
2016,05,25,07,53,13.20
2016,05,25,07,54,13.30
2016,05,25,07,55,13.30
2016,05,25,07,56,13.30
2016,05,25,07,57,13.40
2016,05,25,07,58,13.50
2016,05,25,07,59,13.50
2016,05,25,08,00,13.60
2016,05,25,08,01,13.70
2016,05,25,08,02,13.70
2016,05,25,08,03,13.80
2016,05,25,08,04,13.90
2016,05,25,08,05,14.00
2016,05,25,08,06,14.00
2016,05,25,08,07,14.00
2016,05,25,08,08,14.10
2016,05,25,08,09,14.10
2016,05,25,08,10,14.20
2016,05,25,08,11,14.20
2016,05,25,08,12,14.30
2016,05,25,08,13,14.40
2016,05,25,08,14,14.50
2016,05,25,08,15,14.60
2016,05,25,08,16,14.60
2016,05,25,08,17,14.70
2016,05,25,08,18,14.80
2016,05,25,08,19,14.80
2016,05,25,08,20,14.80
2016,05,25,08,21,14.90
2016,05,25,08,22,14.90
2016,05,25,08,23,15.00
2016,05,25,08,24,15.10
2016,05,25,08,25,15.10
2016,05,25,08,26,15.10
2016,05,25,08,27,15.10
2016,05,25,08,28,15.20
2016,05,25,08,29,15.10
2016,05,25,08,30,15.10
2016,05,25,08,31,15.10
2016,05,25,08,32,15.10
2016,05,25,08,33,15.20
2016,05,25,08,34,15.20
2016,05,25,08,35,15.20
2016,05,25,08,36,15.20
2016,05,25,08,37,15.20
2016,05,25,08,38,15.20
2016,05,25,08,39,15.20
2016,05,25,08,40,15.20
2016,05,25,08,41,15.20
2016,05,25,08,42,15.20
2016,05,25,08,43,15.20
2016,05,25,08,44,15.20
2016,05,25,08,45,15.30
2016,05,25,08,46,15.30
2016,05,25,08,47,15.30
2016,05,25,08,48,15.30
2016,05,25,08,49,15.30
2016,05,25,08,50,15.30
2016,05,25,08,51,15.30
2016,05,25,08,52,15.30
2016,05,25,08,53,15.30
2016,05,25,08,54,15.30
2016,05,25,08,55,15.30
2016,05,25,08,56,15.30
2016,05,25,08,57,15.20
2016,05,25,08,58,15.20
2016,05,25,08,59,15.20
2016,05,25,09,00,15.20
2016,05,25,09,01,15.20
2016,05,25,09,02,15.30
2016,05,25,09,03,15.40
2016,05,25,09,04,15.50
2016,05,25,09,05,15.60
2016,05,25,09,06,15.60
2016,05,25,09,07,15.60
2016,05,25,09,08,15.60
2016,05,25,09,09,15.60
2016,05,25,09,10,15.70
2016,05,25,09,11,15.70
2016,05,25,09,12,15.80
2016,05,25,09,13,15.80
2016,05,25,09,14,15.80
2016,05,25,09,15,15.80
2016,05,25,09,16,15.90
2016,05,25,09,17,15.90
2016,05,25,09,18,16.10
2016,05,25,09,19,16.10
2016,05,25,09,20,16.20
2016,05,25,09,21,16.30
2016,05,25,09,22,16.30
2016,05,25,09,23,16.30
2016,05,25,09,24,16.20
2016,05,25,09,25,16.30
2016,05,25,09,26,16.30
2016,05,25,09,27,16.30
2016,05,25,09,28,16.20
2016,05,25,09,29,16.10
2016,05,25,09,30,16.20
2016,05,25,09,31,16.40
2016,05,25,09,32,16.40
2016,05,25,09,33,16.40
2016,05,25,09,34,16.30
2016,05,25,09,35,16.10
2016,05,25,09,36,16.10
2016,05,25,09,37,16.20
2016,05,25,09,38,16.10
2016,05,25,09,39,16.00
2016,05,25,09,40,15.80
2016,05,25,09,41,15.70
2016,05,25,09,42,15.70
2016,05,25,09,43,15.60
2016,05,25,09,44,15.60
2016,05,25,09,45,15.50
2016,05,25,09,46,15.50
2016,05,25,09,47,15.60
2016,05,25,09,48,15.60
2016,05,25,09,49,15.70
2016,05,25,09,50,15.80
2016,05,25,09,51,15.80
2016,05,25,09,52,15.70
2016,05,25,09,53,15.60
2016,05,25,09,54,15.50
2016,05,25,09,55,15.60
2016,05,25,09,56,15.70
2016,05,25,09,57,15.80
2016,05,25,09,58,15.80
2016,05,25,09,59,15.70
2016,05,25,10,00,15.60
2016,05,25,10,01,15.50
2016,05,25,10,02,15.50
2016,05,25,10,03,15.60
2016,05,25,10,04,15.60
2016,05,25,10,05,15.70
2016,05,25,10,06,15.60
2016,05,25,10,07,15.60
2016,05,25,10,08,15.80
2016,05,25,10,09,15.80
2016,05,25,10,10,15.70
2016,05,25,10,11,15.70
2016,05,25,10,12,15.60
2016,05,25,10,13,15.60
2016,05,25,10,14,15.60
2016,05,25,10,15,15.60
2016,05,25,10,16,15.50
2016,05,25,10,17,15.50
2016,05,25,10,18,15.40
2016,05,25,10,19,15.30
2016,05,25,10,20,15.30
2016,05,25,10,21,15.30
2016,05,25,10,22,15.30
2016,05,25,10,23,15.20
2016,05,25,10,24,15.20
2016,05,25,10,25,15.30
2016,05,25,10,26,15.30
2016,05,25,10,27,15.30
2016,05,25,10,28,15.30
2016,05,25,10,29,15.30
2016,05,25,10,30,15.30
2016,05,25,10,31,15.30
2016,05,25,10,32,15.30
2016,05,25,10,33,15.30
2016,05,25,10,34,15.30
2016,05,25,10,35,15.30
2016,05,25,10,36,15.30
2016,05,25,10,37,15.30
2016,05,25,10,38,15.40
2016,05,25,10,39,15.40
2016,05,25,10,40,15.40
2016,05,25,10,41,15.50
2016,05,25,10,42,15.60
2016,05,25,10,43,15.80
2016,05,25,10,44,15.80
2016,05,25,10,45,15.80
2016,05,25,10,46,15.80
2016,05,25,10,47,15.80
2016,05,25,10,48,15.80
2016,05,25,10,49,15.80
2016,05,25,10,50,15.80
2016,05,25,10,51,15.80
2016,05,25,10,52,15.80
2016,05,25,10,53,15.80
2016,05,25,10,54,15.80
2016,05,25,10,55,15.90
2016,05,25,10,56,15.90
2016,05,25,10,57,16.00
2016,05,25,10,58,16.10
2016,05,25,10,59,16.10
2016,05,25,11,00,16.10
2016,05,25,11,01,16.10
2016,05,25,11,02,16.00
2016,05,25,11,03,15.80
2016,05,25,11,04,15.80
2016,05,25,11,05,15.70
2016,05,25,11,06,15.70
2016,05,25,11,07,15.70
2016,05,25,11,08,15.70
2016,05,25,11,09,15.80
2016,05,25,11,10,15.90
2016,05,25,11,11,16.00
2016,05,25,11,12,16.10
2016,05,25,11,13,16.10
2016,05,25,11,14,16.20
2016,05,25,11,15,16.20
2016,05,25,11,16,16.20
2016,05,25,11,17,16.20
2016,05,25,11,18,16.30
2016,05,25,11,19,16.30
2016,05,25,11,20,16.20
2016,05,25,11,21,16.10
2016,05,25,11,22,16.00
2016,05,25,11,23,15.90
2016,05,25,11,24,15.90
2016,05,25,11,25,15.90
2016,05,25,11,26,16.00
2016,05,25,11,27,16.10
2016,05,25,11,28,16.10
2016,05,25,11,29,16.10
2016,05,25,11,30,16.20
2016,05,25,11,31,16.30
2016,05,25,11,32,16.10
2016,05,25,11,33,16.10
2016,05,25,11,34,16.10
2016,05,25,11,35,16.10
2016,05,25,11,36,16.10
2016,05,25,11,37,16.00
2016,05,25,11,38,15.90
2016,05,25,11,39,15.90
2016,05,25,11,40,15.80
2016,05,25,11,41,15.80
2016,05,25,11,42,15.80
2016,05,25,11,43,15.70
2016,05,25,11,44,15.80
2016,05,25,11,45,15.80
2016,05,25,11,46,15.80
2016,05,25,11,47,15.90
2016,05,25,11,48,16.00
2016,05,25,11,49,16.10
2016,05,25,11,50,16.10
2016,05,25,11,51,16.20
2016,05,25,11,52,16.20
2016,05,25,11,53,16.10
2016,05,25,11,54,16.00
2016,05,25,11,55,15.90
2016,05,25,11,56,15.80
2016,05,25,11,57,15.80
2016,05,25,11,58,15.80
2016,05,25,11,59,15.90
2016,05,25,12,00,15.80
2016,05,25,12,01,15.80
2016,05,25,12,02,15.80
2016,05,25,12,03,15.80
2016,05,25,12,04,15.80
2016,05,25,12,05,15.80
2016,05,25,12,06,15.80
2016,05,25,12,07,15.80
2016,05,25,12,08,15.80
2016,05,25,12,09,15.80
2016,05,25,12,10,15.90
2016,05,25,12,11,15.90
2016,05,25,12,12,15.80
2016,05,25,12,13,15.80
2016,05,25,12,14,15.80
2016,05,25,12,15,15.80
2016,05,25,12,16,15.80
2016,05,25,12,17,15.80
2016,05,25,12,18,15.80
2016,05,25,12,19,15.80
2016,05,25,12,20,15.80
2016,05,25,12,21,15.80
2016,05,25,12,22,15.80
2016,05,25,12,23,15.80
2016,05,25,12,24,15.80
2016,05,25,12,25,15.90
2016,05,25,12,26,16.00
2016,05,25,12,27,16.10
2016,05,25,12,28,16.30
2016,05,25,12,29,16.20
2016,05,25,12,30,16.30
2016,05,25,12,31,16.40
2016,05,25,12,32,16.50
2016,05,25,12,33,16.60
2016,05,25,12,34,16.70
2016,05,25,12,35,16.70
2016,05,25,12,36,16.70
2016,05,25,12,37,16.80
2016,05,25,12,38,16.80
2016,05,25,12,39,16.80
2016,05,25,12,40,16.80
2016,05,25,12,41,16.80
2016,05,25,12,42,16.70
2016,05,25,12,43,16.50
2016,05,25,12,44,16.40
2016,05,25,12,45,16.40
2016,05,25,12,46,16.40
2016,05,25,12,47,16.40
2016,05,25,12,48,16.30
2016,05,25,12,49,16.10
2016,05,25,12,50,16.10
2016,05,25,12,51,16.20
2016,05,25,12,52,16.30
2016,05,25,12,53,16.40
2016,05,25,12,54,16.40
2016,05,25,12,55,16.40
2016,05,25,12,56,16.40
2016,05,25,12,57,16.40
2016,05,25,12,58,16.50
2016,05,25,12,59,16.60
2016,05,25,13,00,16.70
2016,05,25,13,01,16.80
2016,05,25,13,02,16.90
2016,05,25,13,03,17.00
2016,05,25,13,04,17.00
2016,05,25,13,05,17.00
2016,05,25,13,06,16.90
2016,05,25,13,07,16.80
2016,05,25,13,08,16.90
2016,05,25,13,09,16.90
2016,05,25,13,10,17.00
2016,05,25,13,11,17.00
2016,05,25,13,12,17.00
2016,05,25,13,13,17.00
2016,05,25,13,14,16.90
2016,05,25,13,15,16.80
2016,05,25,13,16,16.90
2016,05,25,13,17,16.80
2016,05,25,13,18,16.80
2016,05,25,13,19,16.70
2016,05,25,13,20,16.70
2016,05,25,13,21,16.50
2016,05,25,13,22,16.50
2016,05,25,13,23,16.60
2016,05,25,13,24,16.80
2016,05,25,13,25,16.90
2016,05,25,13,26,17.00
2016,05,25,13,27,17.00
2016,05,25,13,28,17.10
2016,05,25,13,29,17.20
2016,05,25,13,30,17.30
2016,05,25,13,31,17.40
2016,05,25,13,32,17.50
2016,05,25,13,33,17.70
2016,05,25,13,34,17.60
2016,05,25,13,35,17.50
2016,05,25,13,36,17.60
2016,05,25,13,37,17.60
2016,05,25,13,38,17.50
2016,05,25,13,39,17.40
2016,05,25,13,40,17.10
2016,05,25,13,41,17.00
2016,05,25,13,42,17.00
2016,05,25,13,43,17.00
2016,05,25,13,44,17.00
2016,05,25,13,45,17.00
2016,05,25,13,46,17.00
2016,05,25,13,47,17.00
2016,05,25,13,48,17.00
2016,05,25,13,49,16.90
2016,05,25,13,50,17.00
2016,05,25,13,51,17.10
2016,05,25,13,52,17.10
2016,05,25,13,53,17.10
2016,05,25,13,54,17.10
2016,05,25,13,55,17.10
2016,05,25,13,56,17.10
2016,05,25,13,57,17.20
2016,05,25,13,58,17.30
2016,05,25,13,59,17.30
2016,05,25,14,00,17.20
2016,05,25,14,01,17.20
2016,05,25,14,02,17.30
2016,05,25,14,03,17.40
2016,05,25,14,04,17.60
2016,05,25,14,05,17.60
2016,05,25,14,06,17.60
2016,05,25,14,07,17.60
2016,05,25,14,08,17.60
2016,05,25,14,09,17.70
2016,05,25,14,10,17.80
2016,05,25,14,11,17.80
2016,05,25,14,12,17.90
2016,05,25,14,13,17.90
2016,05,25,14,14,17.90
2016,05,25,14,15,18.00
2016,05,25,14,16,17.90
2016,05,25,14,17,18.00
2016,05,25,14,18,18.10
2016,05,25,14,19,18.20
2016,05,25,14,20,18.30
2016,05,25,14,21,18.30
2016,05,25,14,22,18.30
2016,05,25,14,23,18.20
2016,05,25,14,24,18.00
2016,05,25,14,25,17.80
2016,05,25,14,26,17.60
2016,05,25,14,27,17.60
2016,05,25,14,28,17.60
2016,05,25,14,29,17.70
2016,05,25,14,30,17.80
2016,05,25,14,31,17.70
2016,05,25,14,32,17.70
2016,05,25,14,33,17.60
2016,05,25,14,34,17.50
2016,05,25,14,35,17.40
2016,05,25,14,36,17.50
2016,05,25,14,37,17.60
2016,05,25,14,38,17.70
2016,05,25,14,39,17.70
2016,05,25,14,40,17.60
2016,05,25,14,41,17.70
2016,05,25,14,42,17.90
2016,05,25,14,43,17.90
2016,05,25,14,44,17.90
2016,05,25,14,45,18.10
2016,05,25,14,46,18.20
2016,05,25,14,47,18.20
2016,05,25,14,48,18.20
2016,05,25,14,49,18.20
2016,05,25,14,50,18.20
2016,05,25,14,51,18.10
2016,05,25,14,52,18.20
2016,05,25,14,53,18.20
2016,05,25,14,54,18.40
2016,05,25,14,55,18.60
2016,05,25,14,56,18.80
2016,05,25,14,57,18.90
2016,05,25,14,58,18.90
2016,05,25,14,59,18.90
2016,05,25,15,00,18.90
2016,05,25,15,01,18.80
2016,05,25,15,02,18.70
2016,05,25,15,03,18.80
2016,05,25,15,04,18.80
2016,05,25,15,05,18.70
2016,05,25,15,06,18.70
2016,05,25,15,07,18.60
2016,05,25,15,08,18.50
2016,05,25,15,09,18.60
2016,05,25,15,10,18.70
2016,05,25,15,11,18.90
2016,05,25,15,12,18.90
2016,05,25,15,13,18.90
2016,05,25,15,14,18.90
2016,05,25,15,15,18.90
2016,05,25,15,16,18.90
2016,05,25,15,17,18.80
2016,05,25,15,18,18.80
2016,05,25,15,19,18.80
2016,05,25,15,20,18.90
2016,05,25,15,21,18.90
2016,05,25,15,22,18.90
2016,05,25,15,23,18.90
2016,05,25,15,24,18.80
2016,05,25,15,25,18.70
2016,05,25,15,26,18.70
2016,05,25,15,27,18.80
2016,05,25,15,28,18.90
2016,05,25,15,29,18.90
2016,05,25,15,30,18.90
2016,05,25,15,31,18.90
2016,05,25,15,32,18.90
2016,05,25,15,33,18.90
2016,05,25,15,34,18.90
2016,05,25,15,35,18.90
2016,05,25,15,36,18.90
2016,05,25,15,37,18.90
2016,05,25,15,38,18.90
2016,05,25,15,39,18.90
2016,05,25,15,40,18.90
2016,05,25,15,41,19.00
2016,05,25,15,42,19.10
2016,05,25,15,43,19.10
2016,05,25,15,44,19.20
2016,05,25,15,45,19.20
2016,05,25,15,46,19.20
2016,05,25,15,47,19.20
2016,05,25,15,48,19.20
2016,05,25,15,49,19.10
2016,05,25,15,50,19.20
2016,05,25,15,51,19.20
2016,05,25,15,52,19.10
2016,05,25,15,53,19.00
2016,05,25,15,54,18.80
2016,05,25,15,55,18.80
2016,05,25,15,56,18.80
2016,05,25,15,57,18.80
2016,05,25,15,58,18.90
2016,05,25,15,59,18.90
2016,05,25,16,00,18.90
2016,05,25,16,01,18.90
2016,05,25,16,02,18.80
2016,05,25,16,03,18.70
2016,05,25,16,04,18.70
2016,05,25,16,05,18.70
2016,05,25,16,06,18.70
2016,05,25,16,07,18.70
2016,05,25,16,08,18.70
2016,05,25,16,09,18.60
2016,05,25,16,10,18.60
2016,05,25,16,11,18.70
2016,05,25,16,12,18.70
2016,05,25,16,13,18.80
2016,05,25,16,14,18.90
2016,05,25,16,15,18.90
2016,05,25,16,16,18.80
2016,05,25,16,17,18.90
2016,05,25,16,18,18.90
2016,05,25,16,19,18.90
2016,05,25,16,20,19.00
2016,05,25,16,21,19.10
2016,05,25,16,22,19.10
2016,05,25,16,23,19.10
2016,05,25,16,24,19.10
2016,05,25,16,25,19.10
2016,05,25,16,26,19.10
2016,05,25,16,27,19.10
2016,05,25,16,28,19.10
2016,05,25,16,29,19.10
2016,05,25,16,30,19.10
2016,05,25,16,31,19.10
2016,05,25,16,32,19.10
2016,05,25,16,33,19.10
2016,05,25,16,34,19.10
2016,05,25,16,35,19.10
2016,05,25,16,36,19.10
2016,05,25,16,37,19.10
2016,05,25,16,38,19.10
2016,05,25,16,39,19.10
2016,05,25,16,40,19.10
2016,05,25,16,41,19.00
2016,05,25,16,42,18.90
2016,05,25,16,43,19.00
2016,05,25,16,44,19.00
2016,05,25,16,45,18.90
2016,05,25,16,46,18.70
2016,05,25,16,47,18.60
2016,05,25,16,48,18.50
2016,05,25,16,49,18.50
2016,05,25,16,50,18.50
2016,05,25,16,51,18.40
2016,05,25,16,52,18.40
2016,05,25,16,53,18.40
2016,05,25,16,54,18.50
2016,05,25,16,55,18.50
2016,05,25,16,56,18.50
2016,05,25,16,57,18.60
2016,05,25,16,58,18.60
2016,05,25,16,59,18.60
2016,05,25,17,00,18.70
2016,05,25,17,01,18.80
2016,05,25,17,02,18.70
2016,05,25,17,03,18.70
2016,05,25,17,04,18.70
2016,05,25,17,05,18.80
2016,05,25,17,06,18.90
2016,05,25,17,07,18.90
2016,05,25,17,08,18.90
2016,05,25,17,09,18.90
2016,05,25,17,10,18.90
2016,05,25,17,11,18.70
2016,05,25,17,12,18.60
2016,05,25,17,13,18.60
2016,05,25,17,14,18.60
2016,05,25,17,15,18.70
2016,05,25,17,16,18.70
2016,05,25,17,17,18.60
2016,05,25,17,18,18.60
2016,05,25,17,19,18.60